Dewpoint
2 2 3 3 3 2 2 2 3 5 6 7 8 7 7 9 8 6 7 6 5 5 5 6 6 7 8 11 12 12 15 16 17 21 23 28 33 35 35 36 36 37 37 37 38 39 40 42 43 43 44 45 47 47 48 47 47 49 50 49 48 46 46 45 45 43 39 41 45 45 46 46 46 48 48 48 48 51 50 52 52 52 54 54 54
0 1 2 3 2 1 0 1 3 5 5 6 7 7 7 7 7 7 6 5 5 5 5 5 7 8 8 10 12 14 14 14 16 19 24 28 31 34 35 35 35 35 36 36 37 38 39 40 42 43 43 45 47 47 48 47 47 48 49 49 48 46 46 45 45 44 41 39 42 44 45 48 47 46 48 47 48 46 48 49 51 52 53 54 53
-0 1 1 1 0 -1 -0 0 3 4 5 6 6 7 7 6 7 6 6 5 6 6 5 6 6 7 7 8 9 11 12 14 17 21 22 25 31 34 34 34 34 34 34 34 35 37 37 38 40 43 44 45 46 47 47 47 47 47 48 48 47 46 47 46 44 43 41 40 42 42 43 46 47 45 47 48 46 46 46 46 47 48 49 50 51
-1 -1 0 -0 -1 -2 -3 -1 2 3 4 5 6 6 6 6 7 6 5 5 4 5 6 6 6 6 7 7 8 10 12 15 17 19 20 20 24 32 34 33 33 33 33 34 34 36 36 37 39 42 44 44 46 47 47 47 47 47 47 47 47 47 46 44 45 44 43 40 40 42 44 45 43 46 46 46 44 44 45 42 42 43 41 44 48
-2 -2 -2 -2 -3 -4 -4 -1 1 3 4 5 6 6 6 6 6 5 5 4 4 4 4 5 5 7 9 10 11 14 15 15 16 16 17 19 21 25 31 33 33 33 33 33 35 35 35 36 38 40 42 44 46 46 46 46 47 47 46 46 47 46 45 44 44 44 43 41 40 41 43 42 43 44 43 43 42 42 40 42 43 44 42 40 41
-4 -3 -4 -4 -5 -6 -5 -2 1 2 3 5 5 5 6 5 5 4 3 4 4 3 4 4 5 5 5 6 6 7 9 10 13 14 15 16 19 22 26 31 33 33 33 33 33 34 35 36 37 39 41 44 46 47 46 45 46 46 46 46 46 45 44 43 44 43 43 42 41 39 39 39 40 41 43 44 42 40 39 38 39 39 41 39 39
-5 -6 -6 -7 -7 -7 -5 -2 1 3 4 5 5 6 6 5 5 4 2 2 3 3 3 3 4 4 4 5 7 8 9 11 12 13 15 16 18 20 24 28 32 33 32 32 33 34 35 36 37 39 40 43 46 46 46 45 46 45 45 45 44 44 43 43 43 42 42 40 41 41 40 39 41 41 41 43 44 43 40 39 38 37 40 42 40
-7 -8 -9 -9 -9 -6 -4 -1 1 3 4 5 5 5 5 4 4 3 3 2 2 3 3 3 4 5 5 5 7 8 10 11 12 13 15 17 19 21 23 27 31 32 32 32 33 33 34 34 35 37 40 42 46 47 46 46 47 45 46 45 44 44 43 41 41 41 40 40 40 40 40 39 37 39 39 41 41 41 42 42 41 39 38 39 40
-9 -10 -9 -7 -6 -5 -3 -1 2 4 4 4 4 5 4 3 3 2 2 3 3 3 4 3 4 4 4 5 6 8 10 12 14 15 17 18 19 21 23 28 32 32 32 32 32 32 33 34 35 36 38 39 40 44 44 44 47 44 44 45 43 43 41 40 40 40 40 39 39 40 39 39 38 38 39 41 42 42 42 43 42 39 39 39 38
-10 -9 -8 -7 -6 -5 -3 0 3 4 4 3 3 3 2 1 1 2 2 3 3 4 4 4 4 4 4 4 5 8 11 14 18 22 23 20 19 21 22 23 26 29 31 31 32 32 33 33 34 34 35 36 37 40 43 43 43 45 46 44 42 41 41 40 40 40 39 39 39 39 38 38 38 40 41 42 44 42 41 42 40 38 38 38 38
-9 -8 -8 -8 -7 -4 -1 2 3 3 3 2 3 3 2 2 2 2 3 4 3 4 4 4 4 3 4 4 5 7 8 9 18 22 24 25 22 22 22 23 25 27 29 30 31 32 32 33 34 35 35 36 38 39 42 43 42 42 42 42 42 41 40 40 40 39 39 39 39 39 39 39 39 41 42 42 41 42 43 43 41 39 39 38 38
-9 -9 -8 -7 -5 -2 1 2 2 2 2 2 2 2 2 2 2 2 3 4 4 4 4 4 4 4 4 4 4 6 8 16 20 22 23 25 26 23 23 23 24 26 29 31 32 32 32 33 34 35 36 37 40 41 41 42 42 42 42 42 41 41 41 40 40 39 39 39 38 39 39 39 40 42 42 42 41 42 42 42 41 39 39 39 39
-9 -8 -6 -5 -2 -0 2 2 1 1 1 1 1 1 1 0 0 1 3 3 4 4 4 4 4 4 4 4 4 6 7 16 20 23 24 25 26 26 23 24 25 26 28 31 32 32 32 32 33 34 35 36 37 42 44 43 42 41 42 41 41 41 41 41 41 40 40 39 39 39 40 41 40 41 43 42 41 41 40 41 40 40 40 40 39
-8 -6 -5 -3 -2 -1 0 -0 -1 -1 -1 -1 -1 -0 -0 -0 1 2 3 4 5 5 6 6 6 5 5 5 5 5 7 15 20 22 23 25 27 26 24 25 26 26 28 29 31 32 32 32 33 33 34 36 39 42 44 44 44 43 42 43 42 41 41 40 40 39 39 40 39 39 41 42 41 42 41 41 40 40 40 40 39 39 39 39 39
-7 -6 -5 -3 -2 -1 -1 -2 -2 -2 -2 -2 -1 -1 -0 0 1 2 3 4 5 6 6 7 7 8 7 8 7 7 8 17 20 21 23 25 26 26 23 24 25 27 29 30 31 32 32 33 33 33 34 35 39 42 43 44 42 41 41 41 42 42 42 42 42 42 42 42 41 41 42 43 43 43 41 41 41 41 41 40 39 39 36 36 36
-7 -6 -5 -3 -4 -3 -3 -3 -3 -3 -3 -2 -2 -1 0 1 1 3 4 5 7 7 8 8 8 8 9 9 8 9 10 19 21 22 23 24 27 25 24 24 24 26 29 31 32 33 33 33 33 33 34 35 37 41 42 43 41 40 40 40 41 42 43 41 41 41 43 44 43 42 42 42 42 41 40 40 40 39 36 36 36 36 37 37 36
-8 -7 -6 -6 -5 -5 -4 -4 -4 -4 -3 -3 -2 -1 1 2 3 5 6 7 7 8 8 8 9 9 9 10 10 9 11 15 20 22 24 25 24 24 24 25 26 27 29 32 33 33 33 33 33 34 34 35 37 41 42 42 40 39 40 39 40 40 41 42 41 41 41 41 42 42 42 42 42 41 41 41 39 38 38 38 37 38 38 37 36
-9 -7 -7 -6 -7 -6 -5 -5 -4 -4 -3 -2 -1 1 2 4 6 6 6 6 7 8 9 9 10 10 11 10 11 11 12 14 19 21 23 24 24 23 23 25 26 27 30 33 33 33 33 33 33 33 34 35 37 41 42 40 40 39 39 39 39 39 40 41 41 41 40 41 41 40 41 41 41 41 41 41 40 39 39 38 38 38 39 38 36
-10 -9 -8 -8 -7 -6 -6 -5 -4 -3 -2 -1 1 3 3 4 4 5 5 6 7 9 10 11 11 11 12 12 15 14 13 16 20 22 23 25 24 25 25 25 26 27 29 31 32 32 33 33 33 34 34 35 37 40 42 40 39 39 39 39 39 39 40 40 39 38 37 37 38 40 39 39 40 41 39 40 39 38 41 39 38 39 39 38 36
-10 -10 -9 -8 -8 -7 -6 -5 -4 -2 -1 0 2 2 3 2 3 3 5 6 7 8 11 12 12 12 12 13 13 13 13 14 16 22 24 25 26 25 26 26 26 27 28 29 30 30 32 33 33 35 36 36 37 40 42 41 39 39 39 39 39 39 40 38 38 38 38 38 38 38 38 38 38 38 39 39 39 38 41 40 38 39 39 37 35
-10 -10 -10 -9 -9 -8 -6 -5 -3 -1 0 1 2 2 1 2 2 2 3 5 7 8 10 13 13 14 14 14 14 14 15 15 17 22 25 26 26 26 26 27 28 29 29 29 29 30 31 32 34 34 36 37 38 40 41 41 40 39 39 40 39 39 39 38 37 37 37 36 36 37 37 37 37 38 38 39 38 39 40 38 40 41 40 37 36
-11 -11 -11 -10 -9 -8 -6 -4 -2 -1 1 1 -0 0 1 1 1 1 2 4 6 9 11 12 13 15 16 16 15 15 17 20 18 22 25 27 28 29 28 28 29 30 30 30 31 31 32 33 34 35 37 38 39 40 41 41 40 38 39 40 40 39 38 37 37 37 37 36 36 36 36 36 36 37 37 37 38 37 38 38 38 40 40 39 37
-12 -12 -11 -11 -9 -8 -6 -4 -3 -1 -1 -1 -1 -1 -1 -1 -1 1 2 4 6 7 8 9 11 13 16 18 18 18 17 19 23 23 26 28 29 30 30 31 31 31 31 31 31 32 33 34 34 35 36 38 40 41 41 41 40 39 40 40 40 39 38 37 37 37 36 36 36 36 36 36 36 36 36 37 37 37 38 38 38 38 38 38 38
-13 -13 -12 -11 -10 -8 -6 -4 -2 -2 -2 -2 -2 -2 -3 -2 -1 -1 1 2 3 4 5 8 10 11 14 17 20 22 22 22 25 27 28 30 31 31 32 32 33 32 32 32 33 33 34 34 34 36 37 38 40 41 41 40 39 40 40 40 39 38 37 36 36 36 35 35 35 36 36 36 36 36 36 36 36 36 37 36 36 36 36 36 36
-14 -14 -13 -12 -10 -8 -6 -4 -3 -3 -3 -3 -3 -4 -3 -3 -3 -1 1 1 2 3 5 8 9 10 12 15 16 19 24 28 28 29 29 30 31 31 32 32 33 33 32 33 33 34 34 35 35 36 37 38 40 40 40 40 40 40 39 39 37 38 37 37 36 36 35 35 35 36 36 36 36 36 36 36 35 35 35 34 34 35 34 34 33
-16 -15 -13 -12 -10 -8 -6 -4 -4 -4 -4 -4 -4 -4 -4 -4 -3 -2 -1 0 2 3 5 7 8 9 11 13 14 16 20 24 29 30 30 30 31 31 31 32 32 33 33 32 33 34 34 35 35 35 36 37 39 40 39 40 39 39 38 38 38 37 37 37 36 36 36 36 36 35 35 35 35 35 35 35 35 34 34 34 33 33 32 31 30
-16 -15 -14 -12 -10 -7 -5 -5 -5 -5 -5 -5 -5 -5 -5 -4 -3 -2 -1 0 2 4 5 6 7 8 10 11 12 14 16 20 24 28 31 32 32 31 31 31 32 32 32 32 32 32 33 33 34 34 35 37 38 39 39 39 38 39 38 38 37 37 37 37 36 36 36 36 35 35 35 34 34 34 34 34 34 34 34 33 33 33 32 31 31
-16 -16 -14 -11 -9 -7 -6 -4 -5 -7 -6 -5 -6 -6 -6 -3 -2 -1 0 2 4 5 5 5 7 9 9 9 10 11 13 16 19 22 24 26 29 32 32 32 32 32 32 32 32 33 33 34 34 35 36 37 39 38 39 39 38 38 38 38 37 36 36 36 36 37 37 36 36 35 33 33 33 33 33 33 33 33 33 33 32 32 32 31 31
-16 -16 -13 -11 -9 -6 -6 -7 -7 -7 -7 -6 -6 -6 -6 -3 -1 1 3 5 7 7 7 7 9 11 11 9 9 9 11 13 16 23 24 27 28 31 33 33 33 33 34 34 33 33 33 33 34 34 35 37 38 38 38 38 38 38 37 37 37 36 36 36 36 36 36 35 34 34 33 33 32 32 33 33 32 32 32 32 32 32 31 31 31
-17 -16 -13 -11 -9 -8 -8 -9 -8 -8 -7 -7 -7 -7 -2 8 5 3 3 11 15 16 16 9 11 12 10 10 10 11 12 14 22 24 26 27 29 31 34 34 35 34 35 36 35 34 34 34 34 35 35 37 37 37 37 37 37 37 37 37 36 36 36 36 36 36 35 35 34 34 33 32 32 32 32 32 32 32 32 32 31 31 31 30 30
-17 -16 -14 -12 -8 -9 -10 -10 -9 -8 -8 -8 -9 -8 -9 -8 6 11 12 13 14 15 16 17 17 18 12 10 11 17 19 21 22 23 24 26 28 30 33 35 35 35 36 35 35 34 34 34 34 35 36 37 37 37 37 37 37 37 37 37 37 36 35 36 36 35 35 35 34 34 33 32 32 32 32 32 31 31 31 31 31 31 30 30 30
-18 -17 -15 -12 -9 -9 -10 -10 -10 -9 -9 -9 -9 -10 -10 -10 -10 4 11 11 14 14 14 16 17 17 18 15 14 9 15 19 21 21 22 24 26 30 33 35 36 36 37 37 34 34 35 35 35 35 36 36 36 36 36 37 37 37 37 36 36 36 36 36 36 36 35 35 34 33 33 32 32 31 31 31 31 31 30 30 30 30 30 30 30
-18 -17 -15 -11 -10 -10 -11 -12 -11 -10 -10 -10 -10 -11 -11 -11 -11 -11 -9 8 11 12 12 13 15 16 17 17 18 17 17 18 19 20 21 22 25 29 34 36 37 37 37 36 34 34 35 35 35 36 36 36 37 37 36 37 37 37 36 36 36 36 37 36 36 36 35 35 34 33 33 32 32 31 31 31 31 30 30 30 30 30 30 29 29
-19 -17 -14 -11 -10 -11 -12 -13 -12 -11 -10 -10 -11 -11 -11 -11 -11 -11 -11 -11 -11 -1 8 10 12 15 15 16 17 17 17 17 18 18 19 20 22 24 25 25 28 36 37 35 35 35 35 35 35 36 36 36 37 36 36 36 36 36 36 36 37 37 37 37 36 35 35 34 34 33 32 32 31 31 30 30 30 30 30 30 30 29 29 29 29
-18 -15 -12 -10 -10 -11 -12 -13 -13 -11 -10 -11 -12 -12 -12 -10 -10 -11 -11 -12 -12 -12 -12 -11 2 12 8 9 14 15 15 16 17 17 18 18 19 20 18 9 11 13 15 18 28 33 35 35 36 36 36 36 36 36 36 36 36 36 36 36 36 36 36 36 35 35 35 35 34 33 32 32 31 31 31 30 30 30 30 30 29 29 29 29 29
-19 -16 -14 -13 -10 -12 -14 -15 -14 -13 -11 -12 -12 -12 -13 -11 -11 -11 -11 -11 -11 -12 -12 -12 -10 5 12 11 13 12 13 14 15 15 15 16 16 15 0 2 4 6 8 9 12 16 21 27 35 36 36 36 36 36 36 36 36 36 36 36 35 35 35 35 35 35 35 35 34 33 33 32 31 31 31 31 31 30 30 30 30 30 30 29 29
-20 -18 -15 -13 -12 -13 -15 -15 -15 -12 -7 -11 -13 -13 -14 -13 -12 -13 -13 -13 -12 -13 -13 -13 -11 -10 1 -1 4 8 10 10 12 12 12 13 13 1 -1 -1 0 2 4 6 8 9 9 11 15 26 34 35 35 36 36 36 36 35 35 36 36 35 35 35 35 35 35 34 34 34 33 32 32 31 31 31 30 30 30 30 30 30 30 29 29
-22 -19 -15 -10 -12 -14 -16 -16 -15 -12 -13 -13 -14 -14 -14 -14 -14 -13 -13 -13 -12 -13 -14 -13 -7 -11 -8 -5 1 -3 -5 4 8 6 6 5 -6 -6 -4 -3 -2 -2 0 3 7 7 7 8 9 11 14 25 34 35 35 35 35 35 35 35 35 35 35 35 34 35 34 34 34 34 33 33 32 32 31 31 31 30 30 30 30 29 29 30 29
-23 -14 -12 -7 -5 -12 -15 -15 -15 -15 -15 -14 -15 -14 -15 -15 -15 -14 -14 -14 -14 -14 -14 -14 -14 -12 -9 -3 -5 -4 -8 -14 -13 -12 -11 -10 -9 -8 -7 -6 -5 -4 -3 -0 4 6 6 7 8 9 10 11 14 23 32 35 35 35 35 35 35 35 35 35 35 35 34 34 34 34 33 33 33 32 32 31 31 31 31 30 30 30 29 29 29
-22 -23 -15 -8 -13 -13 -15 -15 -16 -16 -15 -15 -16 -15 -16 -16 -16 -16 -16 -15 -15 -15 -15 -15 -15 -14 -10 -2 -3 -9 -15 -15 -14 -14 -12 -11 -10 -9 -8 -7 -7 -6 -5 -4 -1 4 5 6 7 7 8 9 10 12 14 23 34 35 35 35 35 35 35 35 35 34 34 34 34 34 33 33 33 32 32 32 32 31 31 31 30 30 30 29 29
-26 -23 -17 -9 -14 -15 -17 -17 -17 -17 -16 -16 -16 -16 -16 -16 -16 -16 -17 -16 -16 -15 -16 -15 -15 -15 -9 -0 9 2 -14 -15 -14 -14 -14 -13 -11 -10 -9 -9 -7 -6 -6 -5 -5 0 4 5 5 6 7 8 9 9 11 12 15 26 34 34 34 34 34 34 34 34 34 34 34 34 33 33 33 32 32 32 32 32 31 31 31 30 30 30 30
-25 -23 -23 -22 -18 -20 -21 -19 -18 -17 -17 -16 -17 -16 -16 -17 -17 -17 -16 -16 -16 -16 -17 -17 -16 -15 -7 7 6 5 -12 -15 -15 -15 -15 -14 -14 -12 -9 -9 -7 -7 -5 -5 -5 -4 1 4 5 5 6 7 7 8 9 9 10 12 16 25 31 33 33 34 34 34 34 34 34 34 33 33 32 32 32 32 32 31 31 31 30 30 30 30 30
-22 -23 -24 -21 -22 -22 -22 -21 -20 -20 -19 -18 -17 -16 -16 -17 -18 -17 -18 -17 -17 -17 -17 -18 -17 -16 -15 0 -3 0 -16 -16 -14 -15 -15 -15 -15 -13 -11 -10 -8 -7 -6 -5 -4 -4 -1 3 4 5 6 7 7 8 8 8 9 10 11 13 15 17 20 25 33 33 33 33 33 33 33 33 32 32 32 32 32 32 32 32 32 31 31 30 30
-24 -24 -23 -23 -23 -24 -23 -24 -22 -21 -21 -17 -17 -17 -17 -18 -18 -18 -18 -18 -18 -17 -18 -18 -17 -17 -17 -17 -14 -16 -17 -17 -16 -16 -16 -15 -15 -15 -13 -11 -10 -8 -7 -6 -5 -4 -2 1 2 3 5 6 7 8 8 9 9 9 9 10 11 13 14 16 17 19 29 34 33 33 33 32 32 32 32 32 32 32 32 32 32 32 32 31 31
-28 -25 -25 -26 -25 -26 -25 -25 -23 -24 -19 -19 -20 -19 -18 -19 -19 -19 -18 -19 -18 -18 -18 -19 -19 -18 -18 -18 -17 -17 -17 -17 -17 -17 -17 -17 -16 -15 -14 -13 -11 -10 -8 -6 -6 -5 -3 -1 1 2 3 5 6 7 8 8 9 9 10 10 10 11 12 14 15 18 21 30 33 33 33 33 32 32 32 32 32 32 32 32 32 31 32 32 32
-26 -26 -25 -26 -27 -25 -25 -27 -22 -25 -24 -22 -21 -21 -20 -20 -20 -19 -19 -19 -19 -19 -19 -19 -19 -19 -19 -19 -18 -18 -18 -18 -18 -18 -17 -17 -17 -16 -15 -13 -12 -10 -9 -7 -6 -6 -5 -1 -0 1 2 3 5 6 7 8 9 9 10 10 10 11 13 15 16 18 21 27 33 33 33 33 33 32 31 33 32 32 32 32 32 32 32 32 32
-29 -26 -25 -26 -27 -26 -25 -25 -26 -24 -26 -23 -22 -21 -21 -20 -20 -20 -19 -19 -20 -19 -20 -20 -20 -20 -20 -19 -19 -19 -18 -18 -19 -19 -19 -18 -17 -17 -16 -14 -12 -11 -10 -8 -7 -7 -6 -3 -1 0 2 3 4 5 6 7 8 9 9 10 10 11 12 14 15 17 19 21 27 33 33 33 33 32 32 32 32 32 32 32 32 32 32 32 32
-27 -26 -26 -25 -27 -28 -28 -29 -26 -23 -25 -25 -23 -22 -21 -21 -21 -20 -21 -20 -21 -21 -21 -21 -21 -21 -20 -21 -20 -19 -19 -19 -19 -19 -20 -19 -19 -18 -16 -15 -13 -12 -11 -10 -9 -7 -5 -3 -1 0 1 2 3 4 5 7 8 9 9 10 11 11 11 12 14 15 17 19 21 23 24 26 27 29 31 32 33 32 32 32 32 32 32 32 31
-25 -26 -27 -27 -26 -28 -28 -27 -26 -28 -28 -26 -26 -25 -23 -23 -22 -22 -22 -22 -22 -21 -22 -22 -22 -21 -21 -21 -20 -20 -20 -19 -21 -20 -21 -21 -20 -19 -17 -16 -14 -13 -11 -10 -8 -6 -4 -2 -1 0 1 1 2 3 4 6 7 8 9 10 11 12 11 11 12 13 14 15 17 18 19 20 20 21 22 23 24 26 27 28 30 30 30 31 31
-25 -24 -25 -26 -27 -28 -28 -29 -31 -31 -29 -28 -28 -27 -25 -24 -24 -23 -22 -22 -22 -23 -23 -23 -22 -22 -22 -22 -21 -21 -21 -21 -21 -21 -22 -22 -21 -19 -18 -17 -16 -14 -13 -10 -8 -6 -4 -2 -1 0 1 1 1 2 3 5 6 8 9 10 11 11 10 10 10 12 12 12 13 14 15 16 16 17 17 19 20 21 21 21 22 23 25 26 26
-22 -22 -23 -25 -27 -28 -29 -31 -31 -30 -30 -29 -30 -28 -27 -27 -26 -25 -23 -23 -23 -23 -23 -24 -24 -23 -22 -22 -22 -22 -21 -21 -21 -22 -23 -22 -22 -20 -19 -19 -17 -15 -14 -12 -9 -6 -4 -2 -1 0 1 1 1 1 2 4 6 7 9 10 11 11 10 10 9 10 11 11 11 11 12 12 12 13 13 14 15 16 16 17 18 19 19 19 20